CW9690 Weather Reports


time (UTC)temp
F
wind
direction
speed
knots
gust
knots
rain 1hr
in
rain 24hr
in
rain mn
in
humidity
%
barometer
mb
20260507154536 52 25 0.0 5.2 0.00 0.31 0.31 81 1003.7
20260507153031 50 313 0.0 7.8 0.00 0.31 0.31 89 1004.0
20260507153009 55 297 4.3 10.4 0.00 0.27 0.25 74 1002.4
20260507151601 49 329 0.9 5.2 0.00 0.31 0.31 88 1003.9
20260507150508 54 342 3.5 8.7 0.00 0.27 0.25 77 1002.4
20260507150100 49 27 0.0 4.3 0.00 0.31 0.31 88 1004.0
20260507144616 49 19 0.0 1.7 0.00 0.31 0.31 87 1004.4
20260507143508 52 252 4.3 10.4 0.00 0.27 0.25 83 1002.7
20260507143057 48 328 0.0 0.0 0.00 0.31 0.31 87 1004.5
20260507143009 51 345 2.6 7.8 0.00 0.27 0.25 83 1002.7
20260507141620 48 292 0.0 7.0 0.00 0.31 0.31 87 1004.2
20260507140508 51 328 2.6 7.0 0.00 0.27 0.25 84 1002.8
20260507140054 48 303 0.0 2.6 0.00 0.31 0.31 86 1004.2
20260507134552 47 314 0.0 3.5 0.00 0.31 0.31 86 1004.3
20260507133051 47 30 0.0 3.5 0.00 0.31 0.31 85 1004.0
20260507131550 47 333 0.0 0.0 0.00 0.31 0.31 84 1004.0
20260507130055 47 232 0.0 0.0 0.00 0.31 0.31 84 1004.7
20260507124546 47 278 0.0 0.0 0.00 0.31 0.31 84 1004.9
20260507123049 47 303 0.0 0.0 0.00 0.31 0.31 83 1004.3
20260507121546 47 311 0.0 2.6 0.00 0.31 0.31 83 1004.3
20260507120508 48 343 1.7 7.8 0.00 0.27 0.25 94 1002.6
20260507120047 46 300 0.0 2.6 0.00 0.31 0.31 83 1004.1
20260507114543 46 238 0.0 0.0 0.00 0.31 0.31 83 1003.6
20260507113042 46 302 0.0 4.3 0.00 0.31 0.31 83 1003.6
20260507113009 48 290 1.7 7.8 0.00 0.28 0.25 95 1002.2
20260507111544 46 267 0.0 0.9 0.00 0.32 0.31 82 1003.7
20260507110508 48 295 1.7 4.3 0.00 0.28 0.25 96 1002.3
20260507110041 46 238 0.0 0.0 0.00 0.32 0.31 82 1004.0
20260507104538 46 188 0.0 0.9 0.00 0.32 0.31 82 1004.1
20260507103508 48 304 1.7 2.6 0.00 0.28 0.25 96 1002.0
20260507103040 47 214 0.0 6.1 0.00 0.32 0.31 82 1003.5
20260507101545 47 300 0.0 0.0 0.00 0.32 0.31 82 1003.3
20260507100042 47 289 0.0 1.7 0.00 0.32 0.31 82 1003.0
20260507094542 47 319 0.0 4.3 0.01 0.32 0.31 82 1003.0
20260507093508 48 252 1.7 5.2 0.01 0.28 0.25 96 1001.5
20260507093036 47 195 0.0 0.0 0.01 0.32 0.31 82 1002.8
20260507093008 48 234 0.9 8.7 0.01 0.28 0.25 96 1000.8
20260507091532 47 303 0.0 4.3 0.02 0.32 0.31 82 1002.5
20260507090508 49 279 0.9 4.3 0.05 0.28 0.24 96 1000.8
20260507090035 47 316 0.0 0.0 0.07 0.32 0.31 82 1002.0
20260507084535 47 330 0.0 0.0 0.09 0.31 0.30 82 1001.8
20260507083027 48 238 0.0 0.0 0.10 0.31 0.30 82 1001.9
20260507081526 48 284 0.0 0.0 0.09 0.30 0.28 82 1002.1
20260507080507 51 333 1.7 5.2 0.06 0.23 0.20 96 1000.4
20260507080020 49 277 0.9 4.3 0.04 0.25 0.24 81 1002.5
20260507080008 51 310 1.7 8.7 0.05 0.21 0.18 97 1000.4
20260507074519 50 223 0.0 3.5 0.05 0.21 0.20 81 1002.0
20260507073508 51 190 1.7 6.1 0.06 0.17 0.13 97 1000.5
20260507073014 50 179 0.0 0.0 0.07 0.21 0.20 81 1001.6
20260507073007 51 230 1.7 6.1 0.06 0.17 0.13 97 1000.5
20260507071513 50 143 0.0 2.6 0.09 0.21 0.20 81 1001.8
20260507070018 50 249 0.0 3.5 0.12 0.21 0.20 81 1001.9
20260507064508 50 225 0.0 5.2 0.07 0.17 0.15 81 1001.9
20260507063508 52 205 5.2 15.6 0.03 0.11 0.08 96 1000.7
20260507063008 52 189 5.2 11.3 0.02 0.10 0.07 96 1000.7
20260507063006 51 226 0.0 4.3 0.05 0.14 0.13 82 1002.2
20260507061506 51 293 0.0 7.8 0.02 0.10 0.09 82 1002.1
20260507060508 53 210 2.6 10.4 0.02 0.09 0.06 96 1000.7
20260507060008 53 201 4.3 15.6 0.01 0.08 0.05 96 1000.7
20260507060001 52 227 0.0 13.0 0.01 0.09 0.08 82 1002.2
20260507054607 52 264 3.5 13.0 0.03 0.09 0.08 81 1002.2
20260507053508 53 181 5.2 13.0 0.02 0.08 0.05 96 1000.7
20260507053101 52 220 0.0 2.6 0.05 0.09 0.08 81 1002.2
20260507051555 52 258 0.0 12.2 0.05 0.09 0.07 82 1002.5
20260507050508 54 174 6.1 13.0 0.03 0.07 0.04 96 1002.6
20260507050050 52 229 1.7 9.6 0.05 0.09 0.07 83 1003.0
20260507050008 54 204 4.3 12.2 0.04 0.07 0.04 96 1002.6
20260507044556 53 225 0.9 13.9 0.04 0.06 0.05 87 1003.5
20260507043043 54 254 0.9 10.4 0.02 0.05 0.03 89 1003.8
20260507041542 54 235 0.0 7.0 0.02 0.04 0.02 88 1004.0
20260507040507 55 178 5.2 13.0 0.01 0.04 0.01 95 1002.9
20260507040008 54 205 0.0 0.0 0.00 0.02 0.01 89 1004.5
20260507034506 54 236 0.0 8.7 0.00 0.02 0.01 89 1004.6
20260507033035 54 271 0.0 2.6 0.00 0.02 0.01 89 1005.1
20260507031531 54 243 0.0 0.9 0.00 0.02 0.01 89 1005.6
20260507030507 54 179 3.5 8.7 0.00 0.03 0.00 93 1004.3
20260507030104 54 281 0.9 7.0 0.00 0.02 0.01 89 1005.9
20260507024559 54 260 0.0 9.6 0.00 0.02 0.01 89 1006.3
20260507023053 54 256 0.0 3.5 0.00 0.02 0.01 89 1006.6
20260507023007 54 187 2.6 11.3 0.01 0.03 0.03 94 1005.1
20260507021549 53 243 0.0 1.7 0.00 0.02 0.01 89 1006.9
20260507020507 54 177 4.3 13.9 0.01 0.03 0.03 93 1005.8
20260507020050 53 252 0.0 0.9 0.00 0.02 0.01 89 1007.2
20260507014547 53 120 0.0 4.3 0.00 0.02 0.01 89 1007.4
20260507013056 53 238 0.0 0.0 0.00 0.02 0.01 89 1007.8
20260507013007 54 184 1.7 13.0 0.00 0.02 0.02 93 1006.0
20260507011543 53 233 0.0 7.0 0.01 0.02 0.01 89 1008.2
20260507010507 55 185 2.6 7.8 0.00 0.02 0.02 93 1006.0
20260507010044 53 135 0.0 0.9 0.01 0.02 0.01 89 1007.6
20260507010007 55 170 2.6 11.3 0.00 0.02 0.02 93 1006.0
20260507004538 53 140 0.0 0.9 0.01 0.02 0.01 89 1008.4
20260507003507 55 160 5.2 12.2 0.00 0.02 0.02 92 1007.6
20260507003033 54 121 0.0 1.7 0.01 0.02 0.01 88 1008.8
20260507003007 55 189 2.6 13.0 0.00 0.02 0.02 92 1007.6
20260507001536 54 136 0.0 1.7 0.00 0.02 0.02 88 1008.7
20260507000024 54 237 0.0 5.2 0.00 0.02 0.02 88 1009.2
20260506234521 54 285 0.0 5.2 0.00 0.02 0.02 88 1009.0
20260506233507 55 191 3.5 13.0 0.00 0.02 0.02 92 1007.6
20260506233014 54 267 0.0 7.8 0.00 0.02 0.02 88 1009.3
20260506231513 54 160 0.0 5.2 0.00 0.02 0.02 88 1009.3
20260506230508 55 180 3.5 10.4 0.01 0.02 0.02 91 1007.4
20260506230004 54 207 0.0 6.1 0.00 0.02 0.02 88 1009.0
20260506224608 55 230 0.0 6.1 0.00 0.02 0.02 88 1009.1
20260506223507 56 198 2.6 10.4 0.01 0.02 0.02 90 1007.4
20260506223054 55 120 0.0 6.1 0.00 0.02 0.02 87 1008.9
20260506223007 56 191 4.3 17.4 0.01 0.02 0.02 89 1007.4
20260506221554 55 269 0.9 9.6 0.00 0.02 0.02 85 1009.5
20260506220045 56 250 1.7 13.0 0.00 0.02 0.02 85 1009.2
20260506214556 56 140 3.5 13.0 0.00 0.02 0.02 84 1009.2
20260506213507 57 166 5.2 13.0 0.00 0.02 0.02 87 1007.4
20260506213034 56 203 0.0 11.3 0.00 0.02 0.02 84 1008.6
20260506213007 57 166 7.8 14.8 0.00 0.02 0.02 87 1007.4
20260506211532 56 213 1.7 20.9 0.00 0.02 0.02 84 1009.1
20260506210025 -90 248 0.0 10.4 0.00 0.02 0.02 100 1009.2
20260506210007 57 199 8.7 19.1 0.00 0.02 0.02 87 1007.5
20260506204522 56 245 2.6 10.4 0.00 0.02 0.02 84 1008.9
20260506203022 56 266 0.0 7.8 0.00 0.02 0.02 85 1009.1
20260506201519 56 235 0.9 12.2 0.00 0.02 0.02 84 1009.2
20260506200018 56 257 0.0 9.6 0.00 0.02 0.02 84 1009.0
20260506200007 56 196 5.2 15.6 0.00 0.02 0.02 87 1007.6
20260506194518 56 251 2.6 13.0 0.00 0.02 0.02 83 1009.1
20260506193507 57 183 5.2 13.0 0.00 0.02 0.02 86 1007.8
20260506193017 57 239 0.0 14.8 0.00 0.02 0.02 83 1009.1
20260506193007 57 196 4.3 13.0 0.00 0.02 0.02 86 1008.2
20260506191514 57 246 0.0 13.9 0.00 0.02 0.02 83 1009.2
20260506190507 57 210 4.3 12.2 0.00 0.02 0.02 86 1008.2
20260506190016 57 281 0.0 9.6 0.00 0.02 0.02 83 1009.1
20260506190013 57 267 0.0 9.6 0.00 0.02 0.02 83 1009.1
20260506184513 57 181 0.0 10.4 0.00 0.02 0.02 84 1009.2
20260506183012 56 103 0.0 7.0 0.00 0.02 0.02 85 1009.3
20260506183007 56 156 4.3 10.4 0.00 0.02 0.02 89 1008.2
20260506181509 55 207 0.0 12.2 0.00 0.02 0.02 86 1009.4
20260506180506 55 181 5.2 10.4 0.00 0.02 0.02 89 1008.2
20260506180010 55 235 0.0 9.6 0.00 0.02 0.02 86 1009.7
20260506180007 55 187 3.5 12.2 0.00 0.02 0.02 89 1008.3
20260506174507 55 240 0.0 2.6 0.00 0.02 0.02 86 1009.8
20260506173007 55 183 0.0 6.1 0.00 0.02 0.02 86 1010.2
20260506171511 55 212 0.0 0.0 0.00 0.02 0.02 86 1010.3
20260506170004 55 139 0.0 0.0 0.00 0.02 0.02 85 1010.4
20260506164504 55 136 0.0 0.0 0.00 0.02 0.02 85 1010.6
20260506163006 57 174 2.6 8.7 0.00 0.02 0.02 86 1009.1
20260506163003 55 110 0.0 1.7 0.00 0.02 0.02 85 1010.6
20260506161533 55 117 0.0 1.7 0.00 0.02 0.02 85 1010.7
20260506160507 57 144 1.7 6.1 0.00 0.02 0.02 86 1009.6
20260506160033 55 117 0.0 4.3 0.00 0.02 0.02 83 1010.9
20260506160007 57 184 2.6 10.4 0.00 0.02 0.02 86 1009.6